| time (UTC) | temp F | wind direction | speed knots | gust knots | rain 1hr in | rain 24hr in | rain mn in | humidity % | barometer mb |
| 20260506114514 | 40 | 18 | 1.7 | 7.8 | 0.08 | 0.98 | 0.36 | 97 | 1008.8 |
| 20260506113022 | 40 | 44 | 1.7 | 6.1 | 0.09 | 0.96 | 0.34 | 97 | 1008.8 |
| 20260506111528 | 41 | 13 | 1.7 | 6.1 | 0.07 | 0.94 | 0.32 | 97 | 1009.2 |
| 20260506110008 | 41 | 28 | 0.9 | 3.5 | 0.05 | 0.91 | 0.29 | 97 | 1009.3 |
| 20260506104512 | 41 | 41 | 1.7 | 4.3 | 0.04 | 0.90 | 0.28 | 97 | 1009.2 |
| 20260506103022 | 41 | 342 | 1.7 | 4.3 | 0.02 | 0.87 | 0.25 | 97 | 1009.1 |
| 20260506101524 | 41 | 22 | 0.9 | 4.3 | 0.04 | 0.87 | 0.25 | 97 | 1008.8 |
| 20260506100006 | 41 | 51 | 0.9 | 5.2 | 0.04 | 0.86 | 0.24 | 97 | 1008.8 |
| 20260506094510 | 41 | 53 | 0.9 | 2.6 | 0.05 | 0.86 | 0.24 | 97 | 1009.0 |
| 20260506093027 | 41 | 5 | 0.9 | 2.6 | 0.05 | 0.85 | 0.23 | 96 | 1009.4 |
| 20260506091520 | 41 | 37 | 0.9 | 3.5 | 0.04 | 0.83 | 0.21 | 96 | 1009.6 |
| 20260506090024 | 41 | 36 | 0.9 | 3.5 | 0.04 | 0.82 | 0.20 | 96 | 1009.5 |
| 20260506084511 | 41 | 77 | 0.0 | 2.6 | 0.04 | 0.81 | 0.19 | 96 | 1009.5 |
| 20260506083012 | 41 | 101 | 0.9 | 6.1 | 0.04 | 0.80 | 0.18 | 96 | 1009.7 |
| 20260506081516 | 42 | 45 | 1.7 | 5.2 | 0.06 | 0.79 | 0.17 | 96 | 1009.6 |
| 20260506073011 | 42 | 338 | 1.7 | 5.2 | 0.05 | 0.76 | 0.14 | 96 | 1010.1 |
| 20260506071515 | 42 | 11 | 2.6 | 6.1 | 0.03 | 0.73 | 0.11 | 96 | 1009.7 |
| 20260506061510 | 42 | 53 | 0.9 | 3.5 | 0.02 | 0.70 | 0.08 | 96 | 1010.0 |
| 20260506044519 | 44 | 40 | 0.0 | 3.5 | 0.06 | 0.67 | 0.05 | 96 | 1011.4 |
| 20260506043022 | 44 | 86 | 0.0 | 2.6 | 0.06 | 0.65 | 0.03 | 96 | 1010.7 |
| 20260506041525 | 44 | 235 | 0.0 | 1.7 | 0.06 | 0.64 | 0.02 | 96 | 1011.0 |
| 20260506040026 | 44 | 96 | 0.0 | 1.7 | 0.06 | 0.62 | 0.00 | 96 | 1010.6 |
| 20260506034516 | 44 | 121 | 0.9 | 3.5 | 0.07 | 0.61 | 0.61 | 96 | 1010.8 |
| 20260506033004 | 44 | 123 | 0.0 | 1.7 | 0.07 | 0.58 | 0.58 | 96 | 1010.6 |
| 20260506031503 | 44 | 123 | 0.0 | 1.7 | 0.08 | 0.58 | 0.58 | 96 | 1011.1 |
| 20260506030009 | 44 | 153 | 0.9 | 1.7 | 0.08 | 0.56 | 0.56 | 96 | 1011.4 |
| 20260506024513 | 44 | 65 | 1.7 | 2.6 | 0.08 | 0.54 | 0.54 | 95 | 1010.8 |
| 20260506023020 | 44 | 78 | 0.0 | 1.7 | 0.08 | 0.52 | 0.52 | 95 | 1011.4 |
| 20260506021504 | 44 | 78 | 0.9 | 1.7 | 0.09 | 0.50 | 0.50 | 95 | 1010.7 |
| 20260506020008 | 44 | 78 | 0.9 | 1.7 | 0.08 | 0.48 | 0.48 | 95 | 1010.8 |
| 20260506014511 | 44 | 78 | 0.0 | 2.6 | 0.07 | 0.46 | 0.46 | 95 | 1010.9 |
| 20260506013016 | 44 | 92 | 0.9 | 2.6 | 0.06 | 0.44 | 0.44 | 94 | 1010.6 |
| 20260506011525 | 44 | 26 | 0.0 | 3.5 | 0.08 | 0.41 | 0.41 | 94 | 1010.6 |
| 20260506010004 | 44 | 360 | 2.6 | 5.2 | 0.12 | 0.40 | 0.40 | 93 | 1010.6 |
| 20260506004519 | 44 | 5 | 1.7 | 3.5 | 0.11 | 0.39 | 0.39 | 92 | 1010.9 |
| 20260506003012 | 45 | 56 | 3.5 | 11.3 | 0.10 | 0.38 | 0.38 | 90 | 1010.0 |
| 20260506001516 | 47 | 5 | 3.5 | 11.3 | 0.05 | 0.33 | 0.33 | 85 | 1010.5 |
| 20260506000034 | 50 | 350 | 7.8 | 17.4 | 0.00 | 0.28 | 0.28 | 73 | 1009.8 |
| 20260505234511 | 52 | 9 | 6.1 | 17.4 | 0.00 | 0.28 | 0.28 | 70 | 1009.1 |
| 20260505233011 | 54 | 315 | 7.8 | 13.9 | 0.00 | 0.28 | 0.28 | 68 | 1008.7 |
| 20260505231516 | 55 | 318 | 9.6 | 14.8 | 0.00 | 0.28 | 0.28 | 67 | 1008.3 |
| 20260505230032 | 56 | 319 | 2.6 | 14.8 | 0.00 | 0.28 | 0.28 | 68 | 1008.1 |
| 20260505224524 | 57 | 312 | 7.0 | 12.2 | 0.00 | 0.28 | 0.28 | 64 | 1007.8 |
| 20260505223009 | 58 | 9 | 3.5 | 14.8 | 0.00 | 0.28 | 0.28 | 63 | 1007.4 |
| 20260505221512 | 59 | 323 | 4.3 | 12.2 | 0.00 | 0.28 | 0.28 | 63 | 1007.1 |
| 20260505220018 | 59 | 327 | 2.6 | 8.7 | 0.00 | 0.28 | 0.28 | 65 | 1006.8 |
| 20260505214524 | 59 | 355 | 6.1 | 11.3 | 0.00 | 0.28 | 0.28 | 66 | 1006.7 |
| 20260505213028 | 59 | 298 | 6.1 | 12.2 | 0.00 | 0.28 | 0.28 | 69 | 1006.5 |
| 20260505211516 | 60 | 5 | 5.2 | 14.8 | 0.00 | 0.28 | 0.28 | 72 | 1006.4 |
| 20260505210017 | 61 | 19 | 4.3 | 14.8 | 0.00 | 0.28 | 0.28 | 69 | 1006.0 |
| 20260505204521 | 64 | 360 | 6.1 | 13.0 | 0.00 | 0.28 | 0.28 | 63 | 1005.5 |
| 20260505203023 | 65 | 309 | 3.5 | 14.8 | 0.00 | 0.28 | 0.28 | 63 | 1005.1 |
| 20260505201510 | 67 | 330 | 5.2 | 8.7 | 0.00 | 0.28 | 0.28 | 62 | 1005.3 |
| 20260505200012 | 66 | 316 | 1.7 | 5.2 | 0.01 | 0.28 | 0.28 | 67 | 1005.3 |
| 20260505194520 | 67 | 321 | 1.7 | 5.2 | 0.01 | 0.28 | 0.28 | 66 | 1005.4 |
| 20260505193023 | 65 | 49 | 1.7 | 4.3 | 0.01 | 0.28 | 0.28 | 74 | 1005.5 |
| 20260505191533 | 64 | 287 | 1.7 | 3.5 | 0.01 | 0.28 | 0.28 | 79 | 1005.5 |
| 20260505190011 | 63 | 134 | 0.9 | 4.3 | 0.00 | 0.27 | 0.27 | 81 | 1005.7 |
| 20260505184516 | 63 | 244 | 0.9 | 7.8 | 0.00 | 0.27 | 0.27 | 80 | 1005.7 |
| 20260505183023 | 61 | 318 | 1.7 | 6.1 | 0.24 | 0.27 | 0.27 | 85 | 1005.7 |
| 20260505181503 | 60 | 341 | 1.7 | 7.0 | 0.27 | 0.27 | 0.27 | 84 | 1005.3 |
| 20260505180008 | 60 | 285 | 2.6 | 11.3 | 0.27 | 0.27 | 0.27 | 86 | 1005.1 |
| 20260505174518 | 59 | 306 | 2.6 | 7.8 | 0.27 | 0.27 | 0.27 | 85 | 1005.2 |
| 20260505173022 | 66 | 296 | 4.3 | 10.4 | 0.03 | 0.03 | 0.03 | 66 | 1005.5 |
| 20260505171532 | 69 | 260 | 2.6 | 14.8 | 0.00 | 0.00 | 0.00 | 54 | 1004.2 |
| 20260505170008 | 70 | 275 | 3.5 | 9.6 | 0.00 | 0.00 | 0.00 | 53 | 1004.1 |
| 20260505164512 | 69 | 288 | 3.5 | 15.6 | 0.00 | 0.00 | 0.00 | 52 | 1004.3 |
| 20260505163019 | 69 | 246 | 4.3 | 16.5 | 0.00 | 0.00 | 0.00 | 52 | 1004.3 |
| 20260505161523 | 69 | 327 | 1.7 | 13.0 | 0.00 | 0.00 | 0.00 | 54 | 1004.2 |
| 20260505153031 | 69 | 274 | 10.4 | 18.2 | 0.00 | 0.00 | 0.00 | 54 | 1004.4 |
| 20260505151523 | 69 | 280 | 7.8 | 15.6 | 0.00 | 0.00 | 0.00 | 54 | 1004.4 |
| 20260505124527 | 66 | 184 | 4.3 | 16.5 | 0.00 | 0.00 | 0.00 | 59 | 1004.1 |
| 20260505123041 | 65 | 258 | 6.1 | 13.9 | 0.00 | 0.00 | 0.00 | 61 | 1004.0 |
| 20260505121514 | 64 | 226 | 4.3 | 13.0 | 0.00 | 0.00 | 0.00 | 62 | 1004.1 |
| 20260505120021 | 62 | 264 | 5.2 | 12.2 | 0.00 | 0.00 | 0.00 | 65 | 1004.0 |